Time,TemperatureF,DewpointF,PressureIn,WindDirection,WindDirectionDegrees,WindSpeedMPH,WindSpeedGustMPH,Humidity,HourlyPrecipIn,Conditions,Clouds,dailyrainin,SoftwareType,DateUTC
2013-02-17 00:02:00,23.0,20.0,30.09,SSE,165,0.0,0.0,89,0.00,,,0.00,,2013-02-17 05:02:00,
2013-02-17 00:12:00,23.0,21.0,30.09,SSE,165,0.0,0.0,90,0.00,,,0.00,,2013-02-17 05:12:00,
2013-02-17 00:22:00,23.0,21.0,30.09,SSE,165,0.0,0.0,90,0.00,,,0.00,,2013-02-17 05:22:00,
2013-02-17 00:33:00,23.0,21.0,30.09,SSE,165,0.0,0.0,90,0.00,,,0.00,,2013-02-17 05:33:00,
2013-02-17 00:42:00,23.0,21.0,30.09,SSE,165,0.0,0.0,90,0.00,,,0.00,,2013-02-17 05:42:00,
2013-02-17 00:52:00,23.0,20.0,30.10,SSE,165,0.0,0.0,89,0.00,,,0.00,,2013-02-17 05:52:00,
2013-02-17 01:02:00,23.0,20.0,30.10,SSE,165,0.0,0.0,89,0.00,,,0.00,,2013-02-17 06:02:00,
2013-02-17 01:11:00,23.0,20.0,30.10,SSE,165,0.0,0.0,89,0.00,,,0.00,,2013-02-17 06:11:00,
2013-02-17 01:21:00,23.0,20.0,30.11,SSE,165,0.0,0.0,88,0.00,,,0.00,,2013-02-17 06:21:00,
2013-02-17 01:32:00,22.0,19.0,30.11,SSE,165,0.0,0.0,88,0.00,,,0.00,,2013-02-17 06:32:00,
2013-02-17 01:42:00,22.0,19.0,30.11,SSE,165,0.0,0.0,88,0.00,,,0.00,,2013-02-17 06:42:00,
2013-02-17 01:52:00,22.0,19.0,30.11,SSE,165,0.0,0.0,88,0.00,,,0.00,,2013-02-17 06:52:00,
2013-02-17 02:01:00,22.0,19.0,30.11,SSE,165,0.0,0.0,89,0.00,,,0.00,,2013-02-17 07:01:00,
2013-02-17 02:11:00,21.0,18.0,30.11,SSE,165,0.0,0.0,88,0.00,,,0.00,,2013-02-17 07:11:00,
2013-02-17 02:21:00,21.0,18.0,30.11,SSE,165,0.0,0.0,88,0.00,,,0.00,,2013-02-17 07:21:00,
2013-02-17 02:32:00,20.0,17.0,30.11,SSE,165,0.0,0.0,88,0.00,,,0.00,,2013-02-17 07:32:00,
2013-02-17 02:42:00,20.0,17.0,30.11,SSE,165,0.0,0.0,88,0.00,,,0.00,,2013-02-17 07:42:00,
2013-02-17 02:52:00,19.0,16.0,30.11,SSE,165,0.0,0.0,88,0.00,,,0.00,,2013-02-17 07:52:00,
2013-02-17 03:01:00,19.0,16.0,30.11,SSE,165,0.0,0.0,88,0.00,,,0.00,,2013-02-17 08:01:00,
2013-02-17 03:11:00,19.0,16.0,30.11,SSE,165,0.0,0.0,88,0.00,,,0.00,,2013-02-17 08:11:00,
2013-02-17 03:21:00,19.0,16.0,30.11,SSE,165,0.0,0.0,88,0.00,,,0.00,,2013-02-17 08:21:00,
2013-02-17 03:32:00,18.0,15.0,30.11,SSE,165,0.0,0.0,88,0.00,,,0.00,,2013-02-17 08:32:00,
2013-02-17 03:42:00,18.0,15.0,30.11,SSE,165,0.0,0.0,88,0.00,,,0.00,,2013-02-17 08:42:00,
2013-02-17 03:52:00,19.0,16.0,30.12,SSE,165,0.0,0.0,88,0.00,,,0.00,,2013-02-17 08:52:00,
2013-02-17 04:02:00,19.0,16.0,30.12,SSE,165,0.0,0.0,88,0.00,,,0.00,,2013-02-17 09:02:00,
2013-02-17 04:11:00,19.0,16.0,30.12,SSE,165,0.0,0.0,88,0.00,,,0.00,,2013-02-17 09:11:00,
2013-02-17 04:21:00,18.0,15.0,30.12,SSE,165,0.0,0.0,88,0.00,,,0.00,,2013-02-17 09:21:00,
2013-02-17 04:31:00,17.0,14.0,30.12,SSE,165,0.0,0.0,87,0.00,,,0.00,,2013-02-17 09:31:00,
2013-02-17 04:42:00,17.0,14.0,30.12,SSE,165,0.0,0.0,87,0.00,,,0.00,,2013-02-17 09:42:00,
2013-02-17 04:52:00,17.0,14.0,30.13,SSE,165,0.0,0.0,88,0.00,,,0.00,,2013-02-17 09:52:00,
2013-02-17 05:01:00,17.0,14.0,30.14,SSE,165,0.0,0.0,87,0.00,,,0.00,,2013-02-17 10:01:00,
2013-02-17 05:11:00,17.0,14.0,30.14,SSE,165,0.0,0.0,87,0.00,,,0.00,,2013-02-17 10:11:00,
2013-02-17 05:21:00,18.0,15.0,30.14,SSE,165,0.0,0.0,88,0.00,,,0.00,,2013-02-17 10:21:00,
2013-02-17 05:32:00,18.0,15.0,30.15,SSE,165,0.0,0.0,88,0.00,,,0.00,,2013-02-17 10:32:00,
2013-02-17 05:42:00,18.0,15.0,30.15,SSE,165,0.0,0.0,88,0.00,,,0.00,,2013-02-17 10:42:00,
2013-02-17 05:52:00,18.0,15.0,30.16,SSE,165,0.0,0.0,87,0.00,,,0.00,,2013-02-17 10:52:00,
2013-02-17 06:01:00,18.0,15.0,30.16,SSE,165,0.0,0.0,86,0.00,,,0.00,,2013-02-17 11:01:00,
2013-02-17 06:11:00,18.0,15.0,30.16,SSE,165,0.0,0.0,86,0.00,,,0.00,,2013-02-17 11:11:00,
2013-02-17 06:22:00,18.0,15.0,30.16,SSE,165,0.0,0.0,86,0.00,,,0.00,,2013-02-17 11:22:00,
2013-02-17 06:32:00,18.0,15.0,30.17,SSE,165,0.0,0.0,86,0.00,,,0.00,,2013-02-17 11:32:00,
2013-02-17 06:42:00,18.0,15.0,30.17,SSE,165,0.0,0.0,86,0.00,,,0.00,,2013-02-17 11:42:00,
2013-02-17 06:53:00,17.0,14.0,30.18,SSE,164,0.0,0.0,86,0.00,,,0.00,,2013-02-17 11:53:00,
2013-02-17 07:03:00,18.0,15.0,30.18,SSE,164,0.0,0.0,86,0.00,,,0.00,,2013-02-17 12:03:00,
2013-02-17 07:11:00,18.0,15.0,30.18,SSE,164,0.0,0.0,86,0.00,,,0.00,,2013-02-17 12:11:00,
2013-02-17 07:22:00,20.0,16.0,30.19,NNE,16,0.0,0.0,83,0.00,,,0.00,,2013-02-17 12:22:00,
2013-02-17 07:32:00,20.0,15.0,30.19,NNE,15,0.0,0.0,82,0.00,,,0.00,,2013-02-17 12:32:00,
2013-02-17 07:42:00,20.0,15.0,30.19,NNE,15,0.0,0.0,82,0.00,,,0.00,,2013-02-17 12:42:00,
2013-02-17 07:52:00,20.0,15.0,30.20,NNE,16,0.0,0.0,81,0.00,,,0.00,,2013-02-17 12:52:00,
2013-02-17 08:02:00,20.0,15.0,30.20,NNE,15,0.0,0.0,82,0.00,,,0.00,,2013-02-17 13:02:00,
2013-02-17 08:12:00,20.0,15.0,30.20,NNE,15,0.0,0.0,82,0.00,,,0.00,,2013-02-17 13:12:00,
2013-02-17 08:22:00,19.0,15.0,30.21,NNE,16,0.0,0.0,84,0.00,,,0.00,,2013-02-17 13:22:00,
2013-02-17 08:32:00,19.0,15.0,30.21,NNE,15,0.0,0.0,84,0.00,,,0.00,,2013-02-17 13:32:00,
2013-02-17 08:42:00,19.0,15.0,30.21,NNE,15,0.0,0.0,84,0.00,,,0.00,,2013-02-17 13:42:00,
2013-02-17 08:52:00,22.0,18.0,30.22,NNE,16,0.0,0.0,85,0.00,,,0.00,,2013-02-17 13:52:00,
2013-02-17 09:01:00,24.0,19.0,30.22,NNE,15,0.0,0.0,81,0.00,,,0.00,,2013-02-17 14:01:00,
2013-02-17 09:11:00,24.0,19.0,30.22,NNE,15,0.0,0.0,81,0.00,,,0.00,,2013-02-17 14:11:00,
2013-02-17 09:22:00,27.0,20.0,30.22,North,360,0.0,0.0,74,0.00,,,0.00,,2013-02-17 14:22:00,
2013-02-17 09:32:00,28.0,20.0,30.23,WSW,246,1.0,3.0,72,0.00,,,0.00,,2013-02-17 14:32:00,
2013-02-17 09:42:00,28.0,20.0,30.23,WSW,246,1.0,3.0,72,0.00,,,0.00,,2013-02-17 14:42:00,
2013-02-17 09:53:00,29.0,21.0,30.23,WSW,245,0.0,1.0,72,0.01,,,0.01,,2013-02-17 14:53:00,
2013-02-17 10:02:00,29.0,19.0,30.23,NE,54,1.0,5.0,67,0.01,,,0.01,,2013-02-17 15:02:00,
2013-02-17 10:11:00,29.0,19.0,30.23,NE,54,1.0,5.0,67,0.01,,,0.01,,2013-02-17 15:11:00,
2013-02-17 10:21:00,29.0,19.0,30.24,SE,128,0.0,3.0,65,0.01,,,0.01,,2013-02-17 15:21:00,
2013-02-17 10:32:00,30.0,18.0,30.24,ENE,75,0.0,5.0,61,0.01,,,0.01,,2013-02-17 15:32:00,
2013-02-17 10:42:00,30.0,18.0,30.24,ENE,75,0.0,5.0,61,0.01,,,0.01,,2013-02-17 15:42:00,
2013-02-17 10:52:00,28.0,21.0,30.23,SE,126,0.0,5.0,76,0.00,,,0.01,,2013-02-17 15:52:00,
2013-02-17 11:01:00,28.0,23.0,30.23,NE,51,2.0,5.0,82,0.00,,,0.01,,2013-02-17 16:01:00,
2013-02-17 11:21:00,29.0,22.0,30.24,ENE,65,4.0,10.0,75,0.00,,,0.01,,2013-02-17 16:21:00,
2013-02-17 11:32:00,29.0,21.0,30.24,SSE,155,1.0,7.0,73,0.01,,,0.02,,2013-02-17 16:32:00,
2013-02-17 11:42:00,29.0,21.0,30.24,SSE,155,1.0,7.0,73,0.01,,,0.02,,2013-02-17 16:42:00,
2013-02-17 11:52:00,30.0,21.0,30.25,East,81,1.0,4.0,70,0.01,,,0.02,,2013-02-17 16:52:00,
2013-02-17 12:02:00,31.0,20.0,30.24,NE,52,2.0,5.0,64,0.01,,,0.02,,2013-02-17 17:02:00,
2013-02-17 12:11:00,31.0,20.0,30.24,NE,52,2.0,5.0,64,0.01,,,0.02,,2013-02-17 17:11:00,
2013-02-17 12:21:00,32.0,19.0,30.24,ENE,68,3.0,7.0,59,0.01,,,0.02,,2013-02-17 17:21:00,
2013-02-17 12:32:00,33.0,20.0,30.24,ENE,65,4.0,10.0,58,0.00,,,0.02,,2013-02-17 17:32:00,
2013-02-17 12:42:00,33.0,20.0,30.24,ENE,65,4.0,10.0,58,0.00,,,0.02,,2013-02-17 17:42:00,
2013-02-17 12:52:00,34.0,19.0,30.23,NNW,335,1.0,4.0,54,0.00,,,0.02,,2013-02-17 17:52:00,
2013-02-17 13:02:00,34.0,20.0,30.23,ENE,64,1.0,10.0,55,0.01,,,0.03,,2013-02-17 18:02:00,
2013-02-17 13:11:00,34.0,20.0,30.23,ENE,64,1.0,10.0,55,0.01,,,0.03,,2013-02-17 18:11:00,
2013-02-17 13:22:00,35.0,20.0,30.22,SW,230,1.0,6.0,55,0.01,,,0.03,,2013-02-17 18:22:00,
2013-02-17 13:33:00,35.0,19.0,30.22,NE,44,2.0,4.0,52,0.01,,,0.03,,2013-02-17 18:33:00,
2013-02-17 13:42:00,35.0,19.0,30.22,NE,44,2.0,4.0,52,0.01,,,0.03,,2013-02-17 18:42:00,
2013-02-17 13:52:00,36.0,18.0,30.22,ENE,69,5.0,10.0,47,0.02,,,0.04,,2013-02-17 18:52:00,
2013-02-17 14:01:00,37.0,21.0,30.22,SW,223,0.0,6.0,52,0.01,,,0.04,,2013-02-17 19:01:00,
2013-02-17 14:22:00,37.0,19.0,30.21,SSW,194,1.0,14.0,47,0.02,,,0.05,,2013-02-17 19:22:00,
2013-02-17 14:32:00,37.0,18.0,30.21,NNW,336,0.0,5.0,45,0.03,,,0.06,,2013-02-17 19:32:00,
2013-02-17 14:42:00,37.0,18.0,30.21,NNW,336,0.0,5.0,45,0.03,,,0.06,,2013-02-17 19:42:00,
2013-02-17 14:52:00,38.0,17.0,30.21,West,267,1.0,6.0,42,0.02,,,0.06,,2013-02-17 19:52:00,
2013-02-17 15:02:00,39.0,17.0,30.21,NE,53,3.0,7.0,40,0.03,,,0.07,,2013-02-17 20:02:00,
2013-02-17 15:11:00,39.0,17.0,30.21,NE,53,3.0,7.0,40,0.03,,,0.07,,2013-02-17 20:11:00,
2013-02-17 15:22:00,40.0,18.0,30.21,NE,54,3.0,13.0,40,0.02,,,0.07,,2013-02-17 20:22:00,
2013-02-17 15:32:00,39.0,16.0,30.21,ENE,67,1.0,10.0,38,0.02,,,0.08,,2013-02-17 20:32:00,
2013-02-17 15:42:00,39.0,16.0,30.21,ENE,67,1.0,10.0,38,0.02,,,0.08,,2013-02-17 20:42:00,
2013-02-17 15:52:00,41.0,15.0,30.22,ENE,68,2.0,12.0,35,0.03,,,0.09,,2013-02-17 20:52:00,
2013-02-17 16:02:00,42.0,14.0,30.22,NE,53,9.0,14.0,32,0.03,,,0.10,,2013-02-17 21:02:00,
2013-02-17 16:11:00,42.0,14.0,30.22,NE,53,9.0,14.0,32,0.03,,,0.10,,2013-02-17 21:11:00,
2013-02-17 16:21:00,41.0,15.0,30.22,NE,55,2.0,12.0,35,0.05,,,0.12,,2013-02-17 21:21:00,
2013-02-17 16:32:00,41.0,15.0,30.22,NE,47,3.0,7.0,35,0.05,,,0.13,,2013-02-17 21:32:00,
2013-02-17 16:42:00,41.0,15.0,30.22,NE,47,3.0,7.0,35,0.05,,,0.13,,2013-02-17 21:42:00,
2013-02-17 16:53:00,41.0,15.0,30.23,ENE,64,2.0,10.0,34,0.05,,,0.14,,2013-02-17 21:53:00,
2013-02-17 17:01:00,41.0,15.0,30.22,ENE,59,3.0,11.0,34,0.05,,,0.15,,2013-02-17 22:01:00,
2013-02-17 17:12:00,41.0,15.0,30.22,ENE,59,3.0,11.0,34,0.05,,,0.15,,2013-02-17 22:12:00,
2013-02-17 17:22:00,39.0,15.0,30.23,NE,42,0.0,6.0,37,0.03,,,0.15,,2013-02-17 22:22:00,
2013-02-17 17:32:00,39.0,15.0,30.23,SSE,158,0.0,5.0,37,0.02,,,0.15,,2013-02-17 22:32:00,
2013-02-17 17:42:00,39.0,15.0,30.23,SSE,158,0.0,5.0,37,0.02,,,0.15,,2013-02-17 22:42:00,
2013-02-17 17:52:00,38.0,14.0,30.24,NE,45,0.0,5.0,37,0.01,,,0.15,,2013-02-17 22:52:00,
2013-02-17 18:02:00,38.0,13.0,30.25,SSW,192,0.0,4.0,36,0.00,,,0.15,,2013-02-17 23:02:00,
2013-02-17 18:11:00,38.0,13.0,30.25,SSW,192,0.0,4.0,36,0.00,,,0.15,,2013-02-17 23:11:00,
2013-02-17 18:21:00,37.0,16.0,30.26,WNW,284,0.0,1.0,41,0.01,,,0.16,,2013-02-17 23:21:00,
2013-02-17 18:32:00,37.0,15.0,30.26,ENE,62,0.0,3.0,40,0.01,,,0.16,,2013-02-17 23:32:00,
2013-02-17 18:42:00,37.0,15.0,30.26,ENE,62,0.0,3.0,40,0.01,,,0.16,,2013-02-17 23:42:00,
2013-02-17 18:52:00,35.0,16.0,30.27,ENE,62,0.0,0.0,45,0.01,,,0.16,,2013-02-17 23:52:00,
2013-02-17 19:01:00,35.0,16.0,30.27,ENE,62,0.0,0.0,46,0.01,,,0.16,,2013-02-18 00:01:00,
2013-02-17 19:22:00,33.0,14.0,30.28,ENE,62,0.0,0.0,45,0.00,,,0.16,,2013-02-18 00:22:00,
2013-02-17 19:32:00,33.0,15.0,30.28,SSE,167,0.0,1.0,47,0.00,,,0.16,,2013-02-18 00:32:00,
2013-02-17 19:41:00,33.0,15.0,30.28,SSE,167,0.0,1.0,47,0.00,,,0.16,,2013-02-18 00:41:00,
2013-02-17 19:52:00,32.0,17.0,30.29,SSE,159,0.0,0.0,54,0.00,,,0.16,,2013-02-18 00:52:00,
2013-02-17 20:01:00,31.0,18.0,30.29,SSE,159,0.0,0.0,59,0.00,,,0.16,,2013-02-18 01:01:00,
2013-02-17 20:21:00,29.0,16.0,30.29,SSE,159,0.0,0.0,59,0.00,,,0.16,,2013-02-18 01:21:00,
2013-02-17 20:32:00,29.0,15.0,30.30,SSE,159,0.0,0.0,56,0.00,,,0.16,,2013-02-18 01:32:00,
2013-02-17 20:42:00,29.0,15.0,30.30,SSE,159,0.0,0.0,56,0.00,,,0.16,,2013-02-18 01:42:00,
2013-02-17 20:52:00,29.0,18.0,30.30,SSE,159,0.0,0.0,62,0.00,,,0.16,,2013-02-18 01:52:00,
2013-02-17 21:02:00,28.0,17.0,30.30,South,171,0.0,0.0,64,0.00,,,0.16,,2013-02-18 02:02:00,
2013-02-17 21:11:00,28.0,17.0,30.30,South,171,0.0,0.0,64,0.00,,,0.16,,2013-02-18 02:11:00,
2013-02-17 21:22:00,28.0,16.0,30.31,South,182,0.0,0.0,59,0.00,,,0.16,,2013-02-18 02:22:00,
2013-02-17 21:32:00,28.0,17.0,30.31,South,182,0.0,0.0,62,0.00,,,0.16,,2013-02-18 02:32:00,
2013-02-17 21:42:00,28.0,17.0,30.31,South,182,0.0,0.0,62,0.00,,,0.16,,2013-02-18 02:42:00,
2013-02-17 21:52:00,27.0,18.0,30.32,South,182,0.0,0.0,67,0.00,,,0.16,,2013-02-18 02:52:00,
2013-02-17 22:01:00,26.0,16.0,30.32,South,184,0.0,1.0,66,0.00,,,0.16,,2013-02-18 03:01:00,
2013-02-17 22:11:00,26.0,16.0,30.32,South,184,0.0,1.0,66,0.00,,,0.16,,2013-02-18 03:11:00,
2013-02-17 22:21:00,26.0,17.0,30.33,South,183,0.0,0.0,68,0.00,,,0.16,,2013-02-18 03:21:00,
2013-02-17 22:32:00,26.0,17.0,30.33,South,184,0.0,0.0,69,0.00,,,0.16,,2013-02-18 03:32:00,
2013-02-17 22:42:00,26.0,17.0,30.33,South,184,0.0,0.0,69,0.00,,,0.16,,2013-02-18 03:42:00,
2013-02-17 22:52:00,25.0,17.0,30.34,South,183,0.0,0.0,70,0.00,,,0.16,,2013-02-18 03:52:00,
2013-02-17 23:01:00,25.0,17.0,30.34,South,183,0.0,0.0,71,0.00,,,0.16,,2013-02-18 04:01:00,
2013-02-17 23:11:00,25.0,17.0,30.34,South,183,0.0,0.0,71,0.00,,,0.16,,2013-02-18 04:11:00,
2013-02-17 23:21:00,25.0,16.0,30.34,South,184,0.0,0.0,69,0.00,,,0.16,,2013-02-18 04:21:00,
2013-02-17 23:32:00,24.0,16.0,30.34,South,184,0.0,0.0,71,0.00,,,0.16,,2013-02-18 04:32:00,
2013-02-17 23:42:00,24.0,16.0,30.34,South,184,0.0,0.0,71,0.00,,,0.16,,2013-02-18 04:42:00,
2013-02-17 23:52:00,24.0,15.0,30.34,South,183,0.0,1.0,67,0.00,,,0.16,,2013-02-18 04:52:00,